Year,Month,Day,Hour,Minute,Value (Times are PST for temperature in C)
2015,06,13,00,00,13.60
2015,06,13,00,01,13.60
2015,06,13,00,02,13.60
2015,06,13,00,03,13.60
2015,06,13,00,04,13.60
2015,06,13,00,05,13.60
2015,06,13,00,06,13.60
2015,06,13,00,07,13.50
2015,06,13,00,08,13.50
2015,06,13,00,09,13.50
2015,06,13,00,10,13.40
2015,06,13,00,11,13.40
2015,06,13,00,12,13.40
2015,06,13,00,13,13.40
2015,06,13,00,14,13.40
2015,06,13,00,15,13.40
2015,06,13,00,16,13.40
2015,06,13,00,17,13.40
2015,06,13,00,18,13.40
2015,06,13,00,19,13.40
2015,06,13,00,20,13.40
2015,06,13,00,21,13.40
2015,06,13,00,22,13.40
2015,06,13,00,23,13.40
2015,06,13,00,24,13.40
2015,06,13,00,25,13.30
2015,06,13,00,26,13.30
2015,06,13,00,27,13.30
2015,06,13,00,28,13.30
2015,06,13,00,29,13.30
2015,06,13,00,30,13.30
2015,06,13,00,31,13.30
2015,06,13,00,32,13.30
2015,06,13,00,33,13.30
2015,06,13,00,34,13.30
2015,06,13,00,35,13.20
2015,06,13,00,36,13.20
2015,06,13,00,37,13.20
2015,06,13,00,38,13.20
2015,06,13,00,39,13.20
2015,06,13,00,40,13.10
2015,06,13,00,41,13.10
2015,06,13,00,42,13.10
2015,06,13,00,43,13.00
2015,06,13,00,44,13.00
2015,06,13,00,45,12.90
2015,06,13,00,46,12.90
2015,06,13,00,47,12.90
2015,06,13,00,48,12.90
2015,06,13,00,49,12.90
2015,06,13,00,50,12.80
2015,06,13,00,51,12.80
2015,06,13,00,52,12.80
2015,06,13,00,53,12.70
2015,06,13,00,54,12.70
2015,06,13,00,55,12.60
2015,06,13,00,56,12.60
2015,06,13,00,57,12.60
2015,06,13,00,58,12.50
2015,06,13,00,59,12.50
2015,06,13,01,00,12.50
2015,06,13,01,01,12.40
2015,06,13,01,02,12.40
2015,06,13,01,03,12.40
2015,06,13,01,04,12.30
2015,06,13,01,05,12.30
2015,06,13,01,06,12.30
2015,06,13,01,07,12.30
2015,06,13,01,08,12.20
2015,06,13,01,09,12.20
2015,06,13,01,10,12.20
2015,06,13,01,11,12.20
2015,06,13,01,12,12.10
2015,06,13,01,13,12.10
2015,06,13,01,14,12.00
2015,06,13,01,15,12.00
2015,06,13,01,16,12.00
2015,06,13,01,17,11.90
2015,06,13,01,18,11.90
2015,06,13,01,19,11.90
2015,06,13,01,20,11.90
2015,06,13,01,21,11.80
2015,06,13,01,22,11.80
2015,06,13,01,23,11.80
2015,06,13,01,24,11.80
2015,06,13,01,25,11.80
2015,06,13,01,26,11.80
2015,06,13,01,27,11.80
2015,06,13,01,28,11.70
2015,06,13,01,29,11.70
2015,06,13,01,30,11.70
2015,06,13,01,31,11.70
2015,06,13,01,32,11.70
2015,06,13,01,33,11.70
2015,06,13,01,34,11.70
2015,06,13,01,35,11.70
2015,06,13,01,36,11.60
2015,06,13,01,37,11.60
2015,06,13,01,38,11.60
2015,06,13,01,39,11.60
2015,06,13,01,40,11.50
2015,06,13,01,41,11.50
2015,06,13,01,42,11.50
2015,06,13,01,43,11.50
2015,06,13,01,44,11.40
2015,06,13,01,45,11.40
2015,06,13,01,46,11.40
2015,06,13,01,47,11.40
2015,06,13,01,48,11.40
2015,06,13,01,49,11.40
2015,06,13,01,50,11.40
2015,06,13,01,51,11.40
2015,06,13,01,52,11.30
2015,06,13,01,53,11.30
2015,06,13,01,54,11.30
2015,06,13,01,55,11.30
2015,06,13,01,56,11.30
2015,06,13,01,57,11.30
2015,06,13,01,58,11.30
2015,06,13,01,59,11.30
2015,06,13,02,00,11.20
2015,06,13,02,01,11.20
2015,06,13,02,02,11.20
2015,06,13,02,03,11.10
2015,06,13,02,04,11.10
2015,06,13,02,05,11.10
2015,06,13,02,06,11.10
2015,06,13,02,07,11.00
2015,06,13,02,08,11.00
2015,06,13,02,09,11.00
2015,06,13,02,10,11.00
2015,06,13,02,11,11.00
2015,06,13,02,12,11.00
2015,06,13,02,13,10.90
2015,06,13,02,14,10.90
2015,06,13,02,15,10.90
2015,06,13,02,16,10.90
2015,06,13,02,17,10.80
2015,06,13,02,18,10.80
2015,06,13,02,19,10.80
2015,06,13,02,20,10.80
2015,06,13,02,21,10.80
2015,06,13,02,22,10.70
2015,06,13,02,23,10.70
2015,06,13,02,24,10.70
2015,06,13,02,25,10.70
2015,06,13,02,26,10.70
2015,06,13,02,27,10.70
2015,06,13,02,28,10.70
2015,06,13,02,29,10.70
2015,06,13,02,30,10.70
2015,06,13,02,31,10.70
2015,06,13,02,32,10.70
2015,06,13,02,33,10.70
2015,06,13,02,34,10.70
2015,06,13,02,35,10.70
2015,06,13,02,36,10.70
2015,06,13,02,37,10.60
2015,06,13,02,38,10.60
2015,06,13,02,39,10.60
2015,06,13,02,40,10.60
2015,06,13,02,41,10.60
2015,06,13,02,42,10.60
2015,06,13,02,43,10.60
2015,06,13,02,44,10.60
2015,06,13,02,45,10.70
2015,06,13,02,46,10.70
2015,06,13,02,47,10.70
2015,06,13,02,48,10.70
2015,06,13,02,49,10.70
2015,06,13,02,50,10.70
2015,06,13,02,51,10.70
2015,06,13,02,52,10.70
2015,06,13,02,53,10.80
2015,06,13,02,54,10.80
2015,06,13,02,55,10.80
2015,06,13,02,56,10.80
2015,06,13,02,57,10.80
2015,06,13,02,58,10.80
2015,06,13,02,59,10.80
2015,06,13,03,00,10.80
2015,06,13,03,01,10.70
2015,06,13,03,02,10.70
2015,06,13,03,03,10.70
2015,06,13,03,04,10.70
2015,06,13,03,05,10.70
2015,06,13,03,06,10.70
2015,06,13,03,07,10.70
2015,06,13,03,08,10.70
2015,06,13,03,09,10.70
2015,06,13,03,10,10.70
2015,06,13,03,11,10.60
2015,06,13,03,12,10.60
2015,06,13,03,13,10.60
2015,06,13,03,14,10.60
2015,06,13,03,15,10.50
2015,06,13,03,16,10.50
2015,06,13,03,17,10.50
2015,06,13,03,18,10.40
2015,06,13,03,19,10.40
2015,06,13,03,20,10.30
2015,06,13,03,21,10.30
2015,06,13,03,22,10.30
2015,06,13,03,23,10.30
2015,06,13,03,24,10.20
2015,06,13,03,25,10.20
2015,06,13,03,26,10.20
2015,06,13,03,27,10.20
2015,06,13,03,28,10.20
2015,06,13,03,29,10.20
2015,06,13,03,30,10.20
2015,06,13,03,31,10.20
2015,06,13,03,32,10.20
2015,06,13,03,33,10.20
2015,06,13,03,34,10.20
2015,06,13,03,35,10.20
2015,06,13,03,36,10.20
2015,06,13,03,37,10.20
2015,06,13,03,38,10.20
2015,06,13,03,39,10.20
2015,06,13,03,40,10.20
2015,06,13,03,41,10.10
2015,06,13,03,42,10.10
2015,06,13,03,43,10.10
2015,06,13,03,44,10.10
2015,06,13,03,45,10.00
2015,06,13,03,46,10.00
2015,06,13,03,47,10.00
2015,06,13,03,48,9.90
2015,06,13,03,49,9.90
2015,06,13,03,50,9.90
2015,06,13,03,51,9.80
2015,06,13,03,52,9.80
2015,06,13,03,53,9.70
2015,06,13,03,54,9.70
2015,06,13,03,55,9.70
2015,06,13,03,56,9.70
2015,06,13,03,57,9.70
2015,06,13,03,58,9.70
2015,06,13,03,59,9.70
2015,06,13,04,00,9.70
2015,06,13,04,01,9.60
2015,06,13,04,02,9.60
2015,06,13,04,03,9.60
2015,06,13,04,04,9.60
2015,06,13,04,05,9.60
2015,06,13,04,06,9.50
2015,06,13,04,07,9.50
2015,06,13,04,08,9.50
2015,06,13,04,09,9.50
2015,06,13,04,10,9.60
2015,06,13,04,11,9.60
2015,06,13,04,12,9.60
2015,06,13,04,13,9.60
2015,06,13,04,14,9.60
2015,06,13,04,15,9.60
2015,06,13,04,16,9.60
2015,06,13,04,17,9.60
2015,06,13,04,18,9.60
2015,06,13,04,19,9.60
2015,06,13,04,20,9.50
2015,06,13,04,21,9.50
2015,06,13,04,22,9.50
2015,06,13,04,23,9.50
2015,06,13,04,24,9.50
2015,06,13,04,25,9.40
2015,06,13,04,26,9.40
2015,06,13,04,27,9.40
2015,06,13,04,28,9.40
2015,06,13,04,29,9.40
2015,06,13,04,30,9.50
2015,06,13,04,31,9.50
2015,06,13,04,32,9.60
2015,06,13,04,33,9.60
2015,06,13,04,34,9.60
2015,06,13,04,35,9.60
2015,06,13,04,36,9.70
2015,06,13,04,37,9.70
2015,06,13,04,38,9.70
2015,06,13,04,39,9.70
2015,06,13,04,40,9.70
2015,06,13,04,41,9.70
2015,06,13,04,42,9.70
2015,06,13,04,43,9.80
2015,06,13,04,44,9.80
2015,06,13,04,45,9.80
2015,06,13,04,46,9.80
2015,06,13,04,47,9.80
2015,06,13,04,48,9.80
2015,06,13,04,49,9.80
2015,06,13,04,50,9.90
2015,06,13,04,51,9.90
2015,06,13,04,52,9.90
2015,06,13,04,53,9.90
2015,06,13,04,54,9.80
2015,06,13,04,55,9.80
2015,06,13,04,56,9.80
2015,06,13,04,57,9.70
2015,06,13,04,58,9.70
2015,06,13,04,59,9.70
2015,06,13,05,00,9.60
2015,06,13,05,01,9.60
2015,06,13,05,02,9.50
2015,06,13,05,03,9.50
2015,06,13,05,04,9.40
2015,06,13,05,05,9.40
2015,06,13,05,06,9.40
2015,06,13,05,07,9.30
2015,06,13,05,08,9.30
2015,06,13,05,09,9.30
2015,06,13,05,10,9.30
2015,06,13,05,11,9.30
2015,06,13,05,12,9.30
2015,06,13,05,13,9.30
2015,06,13,05,14,9.30
2015,06,13,05,15,9.30
2015,06,13,05,16,9.30
2015,06,13,05,17,9.30
2015,06,13,05,18,9.30
2015,06,13,05,19,9.30
2015,06,13,05,20,9.20
2015,06,13,05,21,9.20
2015,06,13,05,22,9.20
2015,06,13,05,23,9.20
2015,06,13,05,24,9.20
2015,06,13,05,25,9.20
2015,06,13,05,26,9.20
2015,06,13,05,27,9.20
2015,06,13,05,28,9.20
2015,06,13,05,29,9.20
2015,06,13,05,30,9.30
2015,06,13,05,31,9.30
2015,06,13,05,32,9.30
2015,06,13,05,33,9.30
2015,06,13,05,34,9.40
2015,06,13,05,35,9.40
2015,06,13,05,36,9.50
2015,06,13,05,37,9.50
2015,06,13,05,38,9.50
2015,06,13,05,39,9.50
2015,06,13,05,40,9.50
2015,06,13,05,41,9.50
2015,06,13,05,42,9.50
2015,06,13,05,43,9.60
2015,06,13,05,44,9.60
2015,06,13,05,45,9.60
2015,06,13,05,46,9.60
2015,06,13,05,47,9.70
2015,06,13,05,48,9.70
2015,06,13,05,49,9.70
2015,06,13,05,50,9.70
2015,06,13,05,51,9.70
2015,06,13,05,52,9.70
2015,06,13,05,53,9.70
2015,06,13,05,54,9.70
2015,06,13,05,55,9.70
2015,06,13,05,56,9.80
2015,06,13,05,57,9.80
2015,06,13,05,58,9.90
2015,06,13,05,59,10.00
2015,06,13,06,00,10.00
2015,06,13,06,01,10.10
2015,06,13,06,02,10.20
2015,06,13,06,03,10.20
2015,06,13,06,04,10.30
2015,06,13,06,05,10.30
2015,06,13,06,06,10.40
2015,06,13,06,07,10.50
2015,06,13,06,08,10.50
2015,06,13,06,09,10.60
2015,06,13,06,10,10.60
2015,06,13,06,11,10.60
2015,06,13,06,12,10.60
2015,06,13,06,13,10.70
2015,06,13,06,14,10.70
2015,06,13,06,15,10.70
2015,06,13,06,16,10.80
2015,06,13,06,17,10.80
2015,06,13,06,18,10.80
2015,06,13,06,19,10.90
2015,06,13,06,20,10.90
2015,06,13,06,21,11.00
2015,06,13,06,22,11.10
2015,06,13,06,23,11.20
2015,06,13,06,24,11.20
2015,06,13,06,25,11.20
2015,06,13,06,26,11.30
2015,06,13,06,27,11.30
2015,06,13,06,28,11.30
2015,06,13,06,29,11.40
2015,06,13,06,30,11.50
2015,06,13,06,31,11.50
2015,06,13,06,32,11.60
2015,06,13,06,33,11.70
2015,06,13,06,34,11.70
2015,06,13,06,35,11.70
2015,06,13,06,36,11.70
2015,06,13,06,37,11.70
2015,06,13,06,38,11.80
2015,06,13,06,39,11.80
2015,06,13,06,40,11.80
2015,06,13,06,41,11.80
2015,06,13,06,42,11.80
2015,06,13,06,43,11.80
2015,06,13,06,44,11.80
2015,06,13,06,45,11.80
2015,06,13,06,46,11.90
2015,06,13,06,47,11.90
2015,06,13,06,48,12.00
2015,06,13,06,49,12.10
2015,06,13,06,50,12.10
2015,06,13,06,51,12.20
2015,06,13,06,52,12.20
2015,06,13,06,53,12.20
2015,06,13,06,54,12.30
2015,06,13,06,55,12.30
2015,06,13,06,56,12.40
2015,06,13,06,57,12.50
2015,06,13,06,58,12.60
2015,06,13,06,59,12.70
2015,06,13,07,00,12.80
2015,06,13,07,01,12.90
2015,06,13,07,02,13.00
2015,06,13,07,03,13.10
2015,06,13,07,04,13.20
2015,06,13,07,05,13.30
2015,06,13,07,06,13.30
2015,06,13,07,07,13.40
2015,06,13,07,08,13.50
2015,06,13,07,09,13.50
2015,06,13,07,10,13.60
2015,06,13,07,11,13.60
2015,06,13,07,12,13.70
2015,06,13,07,13,13.70
2015,06,13,07,14,13.70
2015,06,13,07,15,13.70
2015,06,13,07,16,13.80
2015,06,13,07,17,13.80
2015,06,13,07,18,13.90
2015,06,13,07,19,14.00
2015,06,13,07,20,14.00
2015,06,13,07,21,13.90
2015,06,13,07,22,13.90
2015,06,13,07,23,13.90
2015,06,13,07,24,13.90
2015,06,13,07,25,13.90
2015,06,13,07,26,13.90
2015,06,13,07,27,13.90
2015,06,13,07,28,13.90
2015,06,13,07,29,14.00
2015,06,13,07,30,14.00
2015,06,13,07,31,14.00
2015,06,13,07,32,14.00
2015,06,13,07,33,14.00
2015,06,13,07,34,14.00
2015,06,13,07,35,14.10
2015,06,13,07,36,14.10
2015,06,13,07,37,14.20
2015,06,13,07,38,14.30
2015,06,13,07,39,14.30
2015,06,13,07,40,14.30
2015,06,13,07,41,14.40
2015,06,13,07,42,14.40
2015,06,13,07,43,14.50
2015,06,13,07,44,14.60
2015,06,13,07,45,14.70
2015,06,13,07,46,14.70
2015,06,13,07,47,14.60
2015,06,13,07,48,14.60
2015,06,13,07,49,14.60
2015,06,13,07,50,14.60
2015,06,13,07,51,14.60
2015,06,13,07,52,14.60
2015,06,13,07,53,14.60
2015,06,13,07,54,14.60
2015,06,13,07,55,14.50
2015,06,13,07,56,14.50
2015,06,13,07,57,14.60
2015,06,13,07,58,14.60
2015,06,13,07,59,14.60
2015,06,13,08,00,14.70
2015,06,13,08,01,14.80
2015,06,13,08,02,14.80
2015,06,13,08,03,14.90
2015,06,13,08,04,14.90
2015,06,13,08,05,14.90
2015,06,13,08,06,14.90
2015,06,13,08,07,15.00
2015,06,13,08,08,15.10
2015,06,13,08,09,15.10
2015,06,13,08,10,15.20
2015,06,13,08,11,15.20
2015,06,13,08,12,15.20
2015,06,13,08,13,15.30
2015,06,13,08,14,15.30
2015,06,13,08,15,15.30
2015,06,13,08,16,15.30
2015,06,13,08,17,15.30
2015,06,13,08,18,15.40
2015,06,13,08,19,15.50
2015,06,13,08,20,15.60
2015,06,13,08,21,15.60
2015,06,13,08,22,15.50
2015,06,13,08,23,15.50
2015,06,13,08,24,15.40
2015,06,13,08,25,15.50
2015,06,13,08,26,15.50
2015,06,13,08,27,15.60
2015,06,13,08,28,15.70
2015,06,13,08,29,15.70
2015,06,13,08,30,15.80
2015,06,13,08,31,15.80
2015,06,13,08,32,15.80
2015,06,13,08,33,15.80
2015,06,13,08,34,15.90
2015,06,13,08,35,16.00
2015,06,13,08,36,16.00
2015,06,13,08,37,16.00
2015,06,13,08,38,15.90
2015,06,13,08,39,15.80
2015,06,13,08,40,15.70
2015,06,13,08,41,15.60
2015,06,13,08,42,15.60
2015,06,13,08,43,15.60
2015,06,13,08,44,15.50
2015,06,13,08,45,15.50
2015,06,13,08,46,15.40
2015,06,13,08,47,15.40
2015,06,13,08,48,15.40
2015,06,13,08,49,15.40
2015,06,13,08,50,15.40
2015,06,13,08,51,15.40
2015,06,13,08,52,15.40
2015,06,13,08,53,15.50
2015,06,13,08,54,15.40
2015,06,13,08,55,15.40
2015,06,13,08,56,15.50
2015,06,13,08,57,15.50
2015,06,13,08,58,15.60
2015,06,13,08,59,15.60
2015,06,13,09,00,15.70
2015,06,13,09,01,15.70
2015,06,13,09,02,15.70
2015,06,13,09,03,15.70
2015,06,13,09,04,15.80
2015,06,13,09,05,15.80
2015,06,13,09,06,15.90
2015,06,13,09,07,16.00
2015,06,13,09,08,16.10
2015,06,13,09,09,16.10
2015,06,13,09,10,15.90
2015,06,13,09,11,15.80
2015,06,13,09,12,15.80
2015,06,13,09,13,15.90
2015,06,13,09,14,15.90
2015,06,13,09,15,15.80
2015,06,13,09,16,15.80
2015,06,13,09,17,15.80
2015,06,13,09,18,15.90
2015,06,13,09,19,16.00
2015,06,13,09,20,15.90
2015,06,13,09,21,15.80
2015,06,13,09,22,15.70
2015,06,13,09,23,15.70
2015,06,13,09,24,15.70
2015,06,13,09,25,15.70
2015,06,13,09,26,15.70
2015,06,13,09,27,15.80
2015,06,13,09,28,15.80
2015,06,13,09,29,15.80
2015,06,13,09,30,15.70
2015,06,13,09,31,15.70
2015,06,13,09,32,15.70
2015,06,13,09,33,15.60
2015,06,13,09,34,15.60
2015,06,13,09,35,15.70
2015,06,13,09,36,15.70
2015,06,13,09,37,15.80
2015,06,13,09,38,15.90
2015,06,13,09,39,16.00
2015,06,13,09,40,16.00
2015,06,13,09,41,16.10
2015,06,13,09,42,16.10
2015,06,13,09,43,16.10
2015,06,13,09,44,16.10
2015,06,13,09,45,16.20
2015,06,13,09,46,16.20
2015,06,13,09,47,16.10
2015,06,13,09,48,16.00
2015,06,13,09,49,16.10
2015,06,13,09,50,16.10
2015,06,13,09,51,16.10
2015,06,13,09,52,16.10
2015,06,13,09,53,16.20
2015,06,13,09,54,16.30
2015,06,13,09,55,16.40
2015,06,13,09,56,16.40
2015,06,13,09,57,16.50
2015,06,13,09,58,16.50
2015,06,13,09,59,16.50
2015,06,13,10,00,16.50
2015,06,13,10,01,16.70
2015,06,13,10,02,16.80
2015,06,13,10,03,16.80
2015,06,13,10,04,16.90
2015,06,13,10,05,17.00
2015,06,13,10,06,16.90
2015,06,13,10,07,16.90
2015,06,13,10,08,16.90
2015,06,13,10,09,16.80
2015,06,13,10,10,16.80
2015,06,13,10,11,16.60
2015,06,13,10,12,16.60
2015,06,13,10,13,16.60
2015,06,13,10,14,16.60
2015,06,13,10,15,16.70
2015,06,13,10,16,16.70
2015,06,13,10,17,16.70
2015,06,13,10,18,16.80
2015,06,13,10,19,16.80
2015,06,13,10,20,16.80
2015,06,13,10,21,16.90
2015,06,13,10,22,17.10
2015,06,13,10,23,17.20
2015,06,13,10,24,17.30
2015,06,13,10,25,17.20
2015,06,13,10,26,17.20
2015,06,13,10,27,17.10
2015,06,13,10,28,17.20
2015,06,13,10,29,17.30
2015,06,13,10,30,17.40
2015,06,13,10,31,17.60
2015,06,13,10,32,17.70
2015,06,13,10,33,17.80
2015,06,13,10,34,17.70
2015,06,13,10,35,17.70
2015,06,13,10,36,17.70
2015,06,13,10,37,17.70
2015,06,13,10,38,17.70
2015,06,13,10,39,17.70
2015,06,13,10,40,17.70
2015,06,13,10,41,17.60
2015,06,13,10,42,17.60
2015,06,13,10,43,17.50
2015,06,13,10,44,17.40
2015,06,13,10,45,17.30
2015,06,13,10,46,17.20
2015,06,13,10,47,17.20
2015,06,13,10,48,17.20
2015,06,13,10,49,17.30
2015,06,13,10,50,17.30
2015,06,13,10,51,17.50
2015,06,13,10,52,17.60
2015,06,13,10,53,17.60
2015,06,13,10,54,17.70
2015,06,13,10,55,17.70
2015,06,13,10,56,17.80
2015,06,13,10,57,17.90
2015,06,13,10,58,17.90
2015,06,13,10,59,18.00
2015,06,13,11,00,18.10
2015,06,13,11,01,18.20
2015,06,13,11,02,18.40
2015,06,13,11,03,18.50
2015,06,13,11,04,18.60
2015,06,13,11,05,18.60
2015,06,13,11,06,18.70
2015,06,13,11,07,18.70
2015,06,13,11,08,18.70
2015,06,13,11,09,18.70
2015,06,13,11,10,18.60
2015,06,13,11,11,18.70
2015,06,13,11,12,18.70
2015,06,13,11,13,18.70
2015,06,13,11,14,18.70
2015,06,13,11,15,18.60
2015,06,13,11,16,18.40
2015,06,13,11,17,18.40
2015,06,13,11,18,18.30
2015,06,13,11,19,18.20
2015,06,13,11,20,18.30
2015,06,13,11,21,18.30
2015,06,13,11,22,18.40
2015,06,13,11,23,18.30
2015,06,13,11,24,18.40
2015,06,13,11,25,18.40
2015,06,13,11,26,18.40
2015,06,13,11,27,18.40
2015,06,13,11,28,18.40
2015,06,13,11,29,18.30
2015,06,13,11,30,18.20
2015,06,13,11,31,18.20
2015,06,13,11,32,18.20
2015,06,13,11,33,18.10
2015,06,13,11,34,18.10
2015,06,13,11,35,18.20
2015,06,13,11,36,18.30
2015,06,13,11,37,18.40
2015,06,13,11,38,18.40
2015,06,13,11,39,18.30
2015,06,13,11,40,18.30
2015,06,13,11,41,18.30
2015,06,13,11,42,18.30
2015,06,13,11,43,18.30
2015,06,13,11,44,18.30
2015,06,13,11,45,18.40
2015,06,13,11,46,18.40
2015,06,13,11,47,18.50
2015,06,13,11,48,18.60
2015,06,13,11,49,18.70
2015,06,13,11,50,18.70
2015,06,13,11,51,18.70
2015,06,13,11,52,18.90
2015,06,13,11,53,19.00
2015,06,13,11,54,19.00
2015,06,13,11,55,19.00
2015,06,13,11,56,19.00
2015,06,13,11,57,18.90
2015,06,13,11,58,18.90
2015,06,13,11,59,18.90
2015,06,13,12,00,18.90
2015,06,13,12,01,19.10
2015,06,13,12,02,19.20
2015,06,13,12,03,19.10
2015,06,13,12,04,18.90
2015,06,13,12,05,18.90
2015,06,13,12,06,18.90
2015,06,13,12,07,19.00
2015,06,13,12,08,19.10
2015,06,13,12,09,19.30
2015,06,13,12,10,19.40
2015,06,13,12,11,19.40
2015,06,13,12,12,19.40
2015,06,13,12,13,19.30
2015,06,13,12,14,19.20
2015,06,13,12,15,19.20
2015,06,13,12,16,19.30
2015,06,13,12,17,19.30
2015,06,13,12,18,19.30
2015,06,13,12,19,19.10
2015,06,13,12,20,19.00
2015,06,13,12,21,18.80
2015,06,13,12,22,18.80
2015,06,13,12,23,18.80
2015,06,13,12,24,18.80
2015,06,13,12,25,18.80
2015,06,13,12,26,18.80
2015,06,13,12,27,18.90
2015,06,13,12,28,19.00
2015,06,13,12,29,19.10
2015,06,13,12,30,19.20
2015,06,13,12,31,19.20
2015,06,13,12,32,19.20
2015,06,13,12,33,19.20
2015,06,13,12,34,19.00
2015,06,13,12,35,18.80
2015,06,13,12,36,18.70
2015,06,13,12,37,18.60
2015,06,13,12,38,18.70
2015,06,13,12,39,18.70
2015,06,13,12,40,18.70
2015,06,13,12,41,18.70
2015,06,13,12,42,18.70
2015,06,13,12,43,18.80
2015,06,13,12,44,19.00
2015,06,13,12,45,19.20
2015,06,13,12,46,19.40
2015,06,13,12,47,19.50
2015,06,13,12,48,19.50
2015,06,13,12,49,19.60
2015,06,13,12,50,19.60
2015,06,13,12,51,19.60
2015,06,13,12,52,19.60
2015,06,13,12,53,19.50
2015,06,13,12,54,19.40
2015,06,13,12,55,19.30
2015,06,13,12,56,19.20
2015,06,13,12,57,19.30
2015,06,13,12,58,19.30
2015,06,13,12,59,19.40
2015,06,13,13,00,19.40
2015,06,13,13,01,19.40
2015,06,13,13,02,19.40
2015,06,13,13,03,19.30
2015,06,13,13,04,19.10
2015,06,13,13,05,18.90
2015,06,13,13,06,18.80
2015,06,13,13,07,18.80
2015,06,13,13,08,18.80
2015,06,13,13,09,18.90
2015,06,13,13,10,19.10
2015,06,13,13,11,19.30
2015,06,13,13,12,19.40
2015,06,13,13,13,19.40
2015,06,13,13,14,19.40
2015,06,13,13,15,19.40
2015,06,13,13,16,19.50
2015,06,13,13,17,19.60
2015,06,13,13,18,19.70
2015,06,13,13,19,19.70
2015,06,13,13,20,19.50
2015,06,13,13,21,19.50
2015,06,13,13,22,19.60
2015,06,13,13,23,19.60
2015,06,13,13,24,19.60
2015,06,13,13,25,19.50
2015,06,13,13,26,19.50
2015,06,13,13,27,19.40
2015,06,13,13,28,19.30
2015,06,13,13,29,19.30
2015,06,13,13,30,19.30
2015,06,13,13,31,19.30
2015,06,13,13,32,19.10
2015,06,13,13,33,19.10
2015,06,13,13,34,19.20
2015,06,13,13,35,19.20
2015,06,13,13,36,19.20
2015,06,13,13,37,19.20
2015,06,13,13,38,19.40
2015,06,13,13,39,19.50
2015,06,13,13,40,19.60
2015,06,13,13,41,19.70
2015,06,13,13,42,19.70
2015,06,13,13,43,19.80
2015,06,13,13,44,19.90
2015,06,13,13,45,19.90
2015,06,13,13,46,19.80
2015,06,13,13,47,19.80
2015,06,13,13,48,19.80
2015,06,13,13,49,19.80
2015,06,13,13,50,19.80
2015,06,13,13,51,19.80
2015,06,13,13,52,19.70
2015,06,13,13,53,19.80
2015,06,13,13,54,20.00
2015,06,13,13,55,20.10
2015,06,13,13,56,20.20
2015,06,13,13,57,20.30
2015,06,13,13,58,20.40
2015,06,13,13,59,20.50
2015,06,13,14,00,20.80
2015,06,13,14,01,21.00
2015,06,13,14,02,21.10
2015,06,13,14,03,21.10
2015,06,13,14,04,21.00
2015,06,13,14,05,20.80
2015,06,13,14,06,20.60
2015,06,13,14,07,20.50
2015,06,13,14,08,20.50
2015,06,13,14,09,20.60
2015,06,13,14,10,20.60
2015,06,13,14,11,20.60
2015,06,13,14,12,20.50
2015,06,13,14,13,20.40
2015,06,13,14,14,20.30
2015,06,13,14,15,20.20
2015,06,13,14,16,20.30
2015,06,13,14,17,20.30
2015,06,13,14,18,20.40
2015,06,13,14,19,20.40
2015,06,13,14,20,20.30
2015,06,13,14,21,20.30
2015,06,13,14,22,20.30
2015,06,13,14,23,20.40
2015,06,13,14,24,20.50
2015,06,13,14,25,20.60
2015,06,13,14,26,20.70
2015,06,13,14,27,20.90
2015,06,13,14,28,21.00
2015,06,13,14,29,21.20
2015,06,13,14,30,21.40
2015,06,13,14,31,21.50
2015,06,13,14,32,21.60
2015,06,13,14,33,21.50
2015,06,13,14,34,21.40
2015,06,13,14,35,21.30
2015,06,13,14,36,21.30
2015,06,13,14,37,21.40
2015,06,13,14,38,21.50
2015,06,13,14,39,21.60
2015,06,13,14,40,21.70
2015,06,13,14,41,21.70
2015,06,13,14,42,21.70
2015,06,13,14,43,21.80
2015,06,13,14,44,21.90
2015,06,13,14,45,21.90
2015,06,13,14,46,21.80
2015,06,13,14,47,21.80
2015,06,13,14,48,21.80
2015,06,13,14,49,21.80
2015,06,13,14,50,21.90
2015,06,13,14,51,22.00
2015,06,13,14,52,22.10
2015,06,13,14,53,22.10
2015,06,13,14,54,22.10
2015,06,13,14,55,22.00
2015,06,13,14,56,21.90
2015,06,13,14,57,21.80
2015,06,13,14,58,21.70
2015,06,13,14,59,21.60
2015,06,13,15,00,21.50
2015,06,13,15,01,21.50
2015,06,13,15,02,21.50
2015,06,13,15,03,21.50
2015,06,13,15,04,21.40
2015,06,13,15,05,21.50
2015,06,13,15,06,21.50
2015,06,13,15,07,21.40
2015,06,13,15,08,21.40
2015,06,13,15,09,21.40
2015,06,13,15,10,21.50
2015,06,13,15,11,21.50
2015,06,13,15,12,21.40
2015,06,13,15,13,21.40
2015,06,13,15,14,21.40
2015,06,13,15,15,21.40
2015,06,13,15,16,21.40
2015,06,13,15,17,21.40
2015,06,13,15,18,21.50
2015,06,13,15,19,21.60
2015,06,13,15,20,21.70
2015,06,13,15,21,21.80
2015,06,13,15,22,21.80
2015,06,13,15,23,21.80
2015,06,13,15,24,21.70
2015,06,13,15,25,21.60
2015,06,13,15,26,21.40
2015,06,13,15,27,21.20
2015,06,13,15,28,21.00
2015,06,13,15,29,20.80
2015,06,13,15,30,20.70
2015,06,13,15,31,20.50
2015,06,13,15,32,20.30
2015,06,13,15,33,20.30
2015,06,13,15,34,20.20
2015,06,13,15,35,20.20
2015,06,13,15,36,20.20
2015,06,13,15,37,20.30
2015,06,13,15,38,20.20
2015,06,13,15,39,20.10
2015,06,13,15,40,20.00
2015,06,13,15,41,20.00
2015,06,13,15,42,20.00
2015,06,13,15,43,19.80
2015,06,13,15,44,19.70
2015,06,13,15,45,19.50
2015,06,13,15,46,19.40
2015,06,13,15,47,19.30
2015,06,13,15,48,19.20
2015,06,13,15,49,19.00
2015,06,13,15,50,18.90
2015,06,13,15,51,18.70
2015,06,13,15,52,18.50
2015,06,13,15,53,18.30
2015,06,13,15,54,18.10
2015,06,13,15,55,18.00
2015,06,13,15,56,18.00
2015,06,13,15,57,17.90
2015,06,13,15,58,17.90
2015,06,13,15,59,17.80
2015,06,13,16,00,17.70
2015,06,13,16,01,17.60
2015,06,13,16,02,17.60
2015,06,13,16,03,17.50
2015,06,13,16,04,17.40
2015,06,13,16,05,17.40
2015,06,13,16,06,17.40
2015,06,13,16,07,17.40
2015,06,13,16,08,17.30
2015,06,13,16,09,17.10
2015,06,13,16,10,17.00
2015,06,13,16,11,16.90
2015,06,13,16,12,16.80
2015,06,13,16,13,16.90
2015,06,13,16,14,17.00
2015,06,13,16,15,17.10
2015,06,13,16,16,17.30
2015,06,13,16,17,17.30
2015,06,13,16,18,17.20
2015,06,13,16,19,17.10
2015,06,13,16,20,17.00
2015,06,13,16,21,16.90
2015,06,13,16,22,17.00
2015,06,13,16,23,17.10
2015,06,13,16,24,17.00
2015,06,13,16,25,17.00
2015,06,13,16,26,17.00
2015,06,13,16,27,16.90
2015,06,13,16,28,16.90
2015,06,13,16,29,16.90
2015,06,13,16,30,16.90
2015,06,13,16,31,17.00
2015,06,13,16,32,17.20
2015,06,13,16,33,17.30
2015,06,13,16,34,17.50
2015,06,13,16,35,17.60
2015,06,13,16,36,17.70
2015,06,13,16,37,17.80
2015,06,13,16,38,17.90
2015,06,13,16,39,17.90
2015,06,13,16,40,17.90
2015,06,13,16,41,17.70
2015,06,13,16,42,17.70
2015,06,13,16,43,17.70
2015,06,13,16,44,17.80
2015,06,13,16,45,17.90
2015,06,13,16,46,18.10
2015,06,13,16,47,18.20
2015,06,13,16,48,18.10
2015,06,13,16,49,18.10
2015,06,13,16,50,18.00
2015,06,13,16,51,18.00
2015,06,13,16,52,17.90
2015,06,13,16,53,18.00
2015,06,13,16,54,18.00
2015,06,13,16,55,18.20
2015,06,13,16,56,18.30
2015,06,13,16,57,18.50
2015,06,13,16,58,18.50
2015,06,13,16,59,18.60
2015,06,13,17,00,18.70
2015,06,13,17,01,18.80
2015,06,13,17,02,18.80
2015,06,13,17,03,18.80
2015,06,13,17,04,18.80
2015,06,13,17,05,18.80
2015,06,13,17,06,18.80
2015,06,13,17,07,18.60
2015,06,13,17,08,18.30
2015,06,13,17,09,18.10
2015,06,13,17,10,17.90
2015,06,13,17,11,17.70
2015,06,13,17,12,17.60
2015,06,13,17,13,17.60
2015,06,13,17,14,17.80
2015,06,13,17,15,17.90
2015,06,13,17,16,18.10
2015,06,13,17,17,18.20
2015,06,13,17,18,18.30
2015,06,13,17,19,18.30
2015,06,13,17,20,18.30
2015,06,13,17,21,18.30
2015,06,13,17,22,18.10
2015,06,13,17,23,18.00
2015,06,13,17,24,17.80
2015,06,13,17,25,17.70